Regional Weather Roundup
Issued by NWS

Home | Current Version | Previous Version | Graphics & Text | Print | Product List | Glossary On
Versions: 1 2 3 4 5 6 7 8 9 10 11 12 13 14 15 16 17 18 19 20 21 22 23 24 25 26 27 28 29 30 31 32 33 34 35 36 37 38 39 40 41 42 43 44 45 46 47 48 49 50
000
ASUS45 KTFX 300519
RWRMT
MONTANA REGIONAL WEATHER ROUNDUP
NATIONAL WEATHER SERVICE GREAT FALLS MT
1100 PM MDT SAT AUG 29 2015

NOTE: "FAIR" INDICATES FEW OR NO CLOUDS BELOW 12000 FEET WITH NO
SIGNIFICANT WEATHER AND/OR OBSTRUCTIONS TO VISIBILITY.

MTZ001>007-043-300600-
WEST OF THE DIVIDE

CITY           SKY/WX    TMP DP  RH WIND       PRES   REMARKS
KALISPELL      CLOUDY    61  53  75 S3        29.85F
MISSOULA       CLOUDY    68  46  45 NW13      29.87R HAZE
BUTTE          CLOUDY    64  48  56 E7        29.93R
MULLAN PASS    MOCLDY    49  41  74 VRB3      29.99F
DEER LODGE       N/A     66  45  45 N5        29.93R
EUREKA           N/A     63  43  48 SE8       29.83F
HAMILTON         N/A     70  46  43 N16       29.84R
LIBBY            N/A     57  46  67 CALM      29.85F
PLAINS           N/A     62  50  65 MISG      29.89F
RONAN            N/A     67  48  50 CALM      29.94R
THOMPSON FALLS   N/A     57  55  93 S1        29.94S
$$

MTZ008-052>055-300600-
SOUTHWEST MONTANA

CITY           SKY/WX    TMP DP  RH WIND       PRES   REMARKS
BOZEMAN        CLOUDY    68  47  46 S6        29.85R
DILLON         CLOUDY    75  40  28 S13       29.88S
W YELLOWSTONE  CLOUDY    57  48  72 N5        30.09F
THREE FORKS      N/A     77  28  16 S17       29.84R
TWIN BRIDGES     N/A     75  41  29 E7        29.87S
$$

MTZ009-010-012-014-046-048-049-054-300600-
EAST SLOPES AND CENTRAL MONTANA

CITY           SKY/WX    TMP DP  RH WIND       PRES   REMARKS
CUT BANK       CLOUDY    63  43  48 W13       29.80R
GREAT FALLS    CLOUDY    66  51  58 SW8       29.78R
MALMSTROM AFB  CLOUDY    69  49  48 SW7       29.77R
HELENA         MOCLDY    65  56  72 W6        29.82R
CONRAD           N/A     72  46  39 W9        29.82R
$$

MTZ011-013-016-021-045-047-050-051-300600-
NORTH CENTRAL MONTANA

CITY           SKY/WX    TMP DP  RH WIND       PRES   REMARKS
HAVRE          CLOUDY    69  57  65 MISG      29.68R
LEWISTOWN      CLOUDY    65  49  56 S5        29.83F
N BAR RANCH      N/A     73  41  31 W5        29.86F
CHINOOK          N/A     75  54  46 CALM      29.67S
FORT BENTON      N/A     72  54  53 SW7       29.73R
$$

MTZ017>020-022>027-061-062-300600-
NORTHEAST MONTANA

CITY           SKY/WX    TMP DP  RH WIND       PRES   REMARKS
GLASGOW        MOCLDY    77  47  34 E12       29.67F HAZE
JORDAN           N/A     79  41  25 CALM      29.71S
SIDNEY         CLOUDY    72  54  53 NE3       29.73S
WOLF POINT     CLOUDY    75  51  43 E10       29.69F HAZE
MALTA            N/A     81  49  32 NW9       29.66F
PLENTYWOOD       N/A     79  45  29 E8        29.74S
POPLAR           N/A     77  52  41 E6        29.71S
SCOBEY           N/A     76  46  34 E8        29.73F
$$

MTZ028>42-056>058-300600-
SOUTHCENTRAL AND SOUTHEAST MONTANA

CITY           SKY/WX    TMP DP  RH WIND       PRES   REMARKS
BAKER          MOCLDY    73  52  47 SE9       29.82F
BILLINGS       CLOUDY    79  40  24 S6        29.79F
LIVINGSTON     MOCLDY    81  41  24 SW22G36   29.84F
MILES CITY     CLOUDY    84  45  25 SE14      29.73F
EKALAKA          N/A     77  42  28 SE6       29.85F
FORSYTH          N/A     82  39  21 SE9       29.71F
LAUREL           N/A     72  42  33 NW2       29.81F
ROUNDUP          N/A     77  40  26 CALM      29.72S
$$

REGIONAL REPORTS...DAKOTAS

CITY           SKY/WX    TMP DP  RH WIND       PRES   REMARKS
WILLISTON      MOCLDY    70  52  52 CALM      29.74F HAZE
MINOT          CLOUDY    73  60  63 CALM      29.74F HAZE
DICKINSON      CLOUDY    67  52  58 S9        29.80F
BEACH            N/A     66  48  52 SE9       29.80F
CROSBY           N/A     64  52  63 S5        29.76F HAZE
BISMARCK       PTCLDY    70  63  78 SE8       29.81F
GRAND FORKS    CLEAR     70  67  90 S12       29.80S
FARGO          CLEAR     70  65  84 S13       29.86S
BUFFALO SD       N/A     71  54  54 S10       29.79F
RAPID CITY     PTCLDY    71  47  42 SE7       29.92F
$$

REGIONAL REPORTS...WYOMING/IDAHO/WASHINGTON

CITY           SKY/WX    TMP DP  RH WIND       PRES   REMARKS
GILLETTE       MOCLDY    75  35  23 S14       29.92S
SHERIDAN       MOCLDY    67  42  40 W3        29.85F
BUFFALO WY     MOCLDY    73  35  25 E5        29.95F
CODY           CLOUDY    73  41  31 SE6       29.93F
YELLOWSTONE LA   N/A     60  40  47 VRB6      30.26R
IDAHO FALLS    LGT RAIN  64  57  78 VRB7G17   29.96R
SALMON         PTCLDY    73  39  29 W5        29.82R
BOISE          LGT RAIN  77  50  38 CALM      29.82S
SPOKANE        CLOUDY    63  42  46 S9        29.84F
$$

REGIONAL REPORTS...ALBERTA

CITY           SKY/WX    TMP DP  RH WIND       PRES   REMARKS
EDMONTON       CLEAR     66  52  59 W9        29.43R
CALGARY        PTCLDY    64  34  32 SW10      29.62F
LETHBRIDGE     MOCLDY    68  37  32 SW21G35   29.75R
MEDICINE HAT   CLOUDY    73  46  38 W12       29.70R
WATERTON GATE    N/A     63  32  31 SW22G37     N/A
CARDSTON         N/A     61  39  44 SW7         N/A
MILK RIVER       N/A     66  45  45 W15G21      N/A
ONEFOUR          N/A     75  46  35 NW12        N/A
$$

REGIONAL REPORTS...SASKATCHEWAN

CITY           SKY/WX    TMP DP  RH WIND       PRES   REMARKS
SWIFT CURRENT  PTCLDY    81  45  28 S17G26    29.66S HAZE
REGINA         CLOUDY    72  52  49 SE21      29.70F
SASKATOON      CLOUDY    72  54  53 SE9       29.63F
CYPRESS HILLS    N/A     68  45  42 SW6         N/A
VAL MARIE        N/A     68  55  64 W5          N/A
ROCKGLEN         N/A     70  46  43 SE12        N/A
ASSINIBOIA       N/A     68  50  52 S9          N/A
$$



USA.gov is the U.S. government's official web portal to all federal, state and local government web resources and services.